ACA73 LOWW-CYYZ

Flight info

Callsign ACA73
Flight time N/A
Altitude 38000
Route BUWUT DCT DITIS DCT OKG DCT VELIS DCT SWALM DCT ARPEG DCT RAVLO Y70 OTBED L60 PENIL M144 BAGSO DCT MCM DCT REVNU DCT PIKIL/M081F390 NATB JANJO/N0468F400 DCT ALKOB DCT YBC DCT POLTY IMEBA9
Aircraft A333/H-SDE3GHIJ2J3J5M1RVWXY/LB2D1

Departure

Time 2026-05-05 14:29
Airport Vienna International Airport (LOWW)

Arrival

Time N/A
Airport Toronto Pearson International Airport (CYYZ)
Time Latitude Longitude Altitude Speed Heading
2026-05-05 13:57 48.11835 16.56991 627 ft 0 kts 206°
2026-05-05 13:58 48.11836 16.56993 627 ft 0 kts 206°
2026-05-05 14:23 48.11846 16.56999 631 ft 3 kts 203°
2026-05-05 14:23 48.11865 16.57010 630 ft 3 kts 194°
2026-05-05 14:23 48.11885 16.57016 630 ft 3 kts 183°
2026-05-05 14:23 48.11904 16.57015 630 ft 3 kts 165°
2026-05-05 14:24 48.11921 16.57004 630 ft 3 kts 130°
2026-05-05 14:24 48.11926 16.56995 630 ft 0 kts 116°
2026-05-05 14:26 48.11926 16.56996 630 ft 1 kts 116°
2026-05-05 14:26 48.11903 16.57067 628 ft 15 kts 116°
2026-05-05 14:26 48.11840 16.57259 630 ft 22 kts 116°
2026-05-05 14:26 48.11811 16.57423 622 ft 13 kts 82°
2026-05-05 14:27 48.11835 16.57544 627 ft 12 kts 71°
2026-05-05 14:27 48.11854 16.57658 618 ft 11 kts 76°
2026-05-05 14:27 48.11855 16.57768 623 ft 10 kts 100°
2026-05-05 14:27 48.11824 16.57855 630 ft 8 kts 134°
2026-05-05 14:28 48.11779 16.57900 627 ft 7 kts 152°
2026-05-05 14:28 48.11736 16.57920 630 ft 6 kts 165°
2026-05-05 14:28 48.11627 16.57967 628 ft 38 kts 164°
2026-05-05 14:28 48.11203 16.58146 627 ft 88 kts 163°
2026-05-05 14:29 48.10460 16.58460 626 ft 132 kts 164°
2026-05-05 14:29 48.09463 16.58896 806 ft 158 kts 161°
2026-05-05 14:29 48.08425 16.59378 1499 ft 155 kts 168°
2026-05-05 14:29 48.07369 16.59818 2125 ft 159 kts 169°
2026-05-05 14:30 48.06278 16.60424 2570 ft 180 kts 158°
2026-05-05 14:30 48.05250 16.61665 3013 ft 200 kts 136°
2026-05-05 14:30 48.04575 16.63656 3362 ft 233 kts 109°
2026-05-05 14:30 48.04630 16.66155 3893 ft 257 kts 78°
2026-05-05 14:31 48.05600 16.68464 4572 ft 271 kts 46°
2026-05-05 14:31 48.07100 16.70302 5036 ft 289 kts 38°
2026-05-05 14:31 48.08769 16.72094 5534 ft 299 kts 37°
2026-05-05 14:31 48.10472 16.73916 6254 ft 300 kts 37°
2026-05-05 14:32 48.12174 16.75763 6923 ft 304 kts 37°
2026-05-05 14:32 48.13919 16.77622 7584 ft 308 kts 31°
2026-05-05 14:32 48.15879 16.78743 8375 ft 305 kts
2026-05-05 14:32 48.18016 16.78659 9083 ft 304 kts 348°
2026-05-05 14:33 48.20122 16.78125 9730 ft 309 kts 347°
2026-05-05 14:33 48.22212 16.77533 10332 ft 314 kts 346°
2026-05-05 14:33 48.24423 16.76910 10618 ft 331 kts 347°
2026-05-05 14:33 48.26748 16.76274 10866 ft 349 kts 347°
2026-05-05 14:34 48.29192 16.75618 11149 ft 364 kts 346°
2026-05-05 14:34 48.31736 16.74940 11519 ft 375 kts 348°
2026-05-05 14:34 48.34262 16.74047 12244 ft 372 kts 338°
2026-05-05 14:34 48.36621 16.72476 13026 ft 370 kts 330°
2026-05-05 14:35 48.38927 16.70698 13602 ft 375 kts 329°
2026-05-05 14:35 48.41232 16.68851 14198 ft 376 kts 325°
2026-05-05 14:35 48.43331 16.66538 14744 ft 373 kts 311°
2026-05-05 14:35 48.44896 16.63464 15323 ft 367 kts 294°
2026-05-05 14:36 48.45915 16.60009 15961 ft 365 kts 288°
2026-05-05 14:36 48.46806 16.56415 16576 ft 366 kts 288°
2026-05-05 14:36 48.47688 16.52757 16974 ft 374 kts 288°
2026-05-05 14:36 48.48585 16.49075 17611 ft 374 kts 288°
2026-05-05 14:37 48.49489 16.45365 18045 ft 380 kts 287°
2026-05-05 14:37 48.50411 16.41603 18446 ft 385 kts 288°
2026-05-05 14:37 48.51344 16.37794 18884 ft 388 kts 288°
2026-05-05 14:37 48.52278 16.33992 19543 ft 385 kts 287°
2026-05-05 14:38 48.53210 16.30182 19975 ft 390 kts 288°
2026-05-05 14:38 48.54141 16.26373 20436 ft 391 kts 287°
2026-05-05 14:38 48.55081 16.22522 21028 ft 390 kts 287°
2026-05-05 14:38 48.56022 16.18649 21329 ft 397 kts 289°
2026-05-05 14:39 48.56986 16.14680 21554 ft 405 kts 289°
2026-05-05 14:39 48.58045 16.10729 21997 ft 408 kts 291°
2026-05-05 14:39 48.59172 16.06787 22462 ft 409 kts 292°
2026-05-05 14:39 48.60312 16.02831 22905 ft 412 kts 292°
2026-05-05 14:40 48.61458 15.98848 23310 ft 414 kts 292°
2026-05-05 14:40 48.62593 15.94889 23648 ft 416 kts 292°
2026-05-05 14:40 48.63746 15.90854 24018 ft 418 kts 292°
2026-05-05 14:40 48.64899 15.86809 24390 ft 418 kts 292°
2026-05-05 14:41 48.66048 15.82774 24796 ft 419 kts 291°
2026-05-05 14:41 48.67200 15.78717 25131 ft 421 kts 291°
2026-05-05 14:41 48.68360 15.74621 25448 ft 424 kts 291°
2026-05-05 14:41 48.69130 15.71902 25658 ft 425 kts 291°
2026-05-05 14:42 48.70298 15.67770 26022 ft 427 kts 291°
2026-05-05 14:42 48.71464 15.63635 26365 ft 428 kts 291°
2026-05-05 14:42 48.73033 15.58063 26816 ft 431 kts 291°
2026-05-05 14:42 48.74195 15.53928 27157 ft 432 kts 291°
2026-05-05 14:43 48.74977 15.51143 27383 ft 433 kts 291°
2026-05-05 14:43 48.76158 15.46924 27714 ft 435 kts 291°
2026-05-05 14:43 48.77342 15.42691 28060 ft 437 kts 291°
2026-05-05 14:43 48.78531 15.38432 28358 ft 439 kts 291°
2026-05-05 14:44 48.79738 15.34159 28678 ft 441 kts 293°
2026-05-05 14:44 48.81191 15.30047 28994 ft 444 kts 300°
2026-05-05 14:44 48.82872 15.26167 29329 ft 446 kts 302°
2026-05-05 14:44 48.84656 15.22305 29640 ft 448 kts 303°
2026-05-05 14:45 48.86493 15.18451 29923 ft 450 kts 304°
2026-05-05 14:45 48.88340 15.14609 30181 ft 451 kts 304°
2026-05-05 14:45 48.90190 15.10733 30444 ft 453 kts 303°
2026-05-05 14:45 48.92019 15.06798 30705 ft 454 kts 302°
2026-05-05 14:46 48.93821 15.02842 30932 ft 456 kts 302°
2026-05-05 14:46 48.95598 14.98897 31178 ft 458 kts 302°
2026-05-05 14:46 48.97404 14.94870 31461 ft 458 kts 302°
2026-05-05 14:46 48.99197 14.90865 31835 ft 457 kts 301°
2026-05-05 14:47 49.00985 14.86870 32231 ft 455 kts 301°
2026-05-05 14:47 49.02766 14.82890 32550 ft 454 kts 301°
2026-05-05 14:47 49.04546 14.78909 32867 ft 454 kts 301°
2026-05-05 14:47 49.06298 14.74988 33180 ft 453 kts 301°
2026-05-05 14:48 49.08074 14.71011 33507 ft 452 kts 301°
2026-05-05 14:48 49.09838 14.67050 33787 ft 452 kts 301°
2026-05-05 14:48 49.11608 14.63072 34012 ft 452 kts 301°
2026-05-05 14:48 49.13376 14.59094 34273 ft 451 kts 301°
2026-05-05 14:49 49.15134 14.55133 34528 ft 451 kts 301°
2026-05-05 14:49 49.16893 14.51165 34753 ft 450 kts 301°
2026-05-05 14:49 49.18647 14.47201 34985 ft 450 kts 301°
2026-05-05 14:49 49.20378 14.43282 35218 ft 449 kts 301°
2026-05-05 14:50 49.22127 14.39317 35437 ft 449 kts 301°
2026-05-05 14:50 49.23871 14.35358 35634 ft 449 kts 301°
2026-05-05 14:50 49.25619 14.31383 35819 ft 449 kts 301°
2026-05-05 14:50 49.27366 14.27404 35974 ft 450 kts 301°
2026-05-05 14:51 49.29113 14.23418 36164 ft 450 kts 301°
2026-05-05 14:51 49.30860 14.19430 36359 ft 449 kts 301°
2026-05-05 14:51 49.32600 14.15450 36601 ft 449 kts 301°
2026-05-05 14:51 49.34335 14.11474 36857 ft 447 kts 301°
2026-05-05 14:52 49.36059 14.07520 37072 ft 446 kts 301°
2026-05-05 14:52 49.37785 14.03554 37218 ft 446 kts 301°
2026-05-05 14:52 49.39485 13.99641 37401 ft 446 kts 300°
2026-05-05 14:52 49.41208 13.95671 37581 ft 446 kts 300°
2026-05-05 14:53 49.42927 13.91700 37751 ft 447 kts 300°
2026-05-05 14:53 49.44650 13.87718 37765 ft 447 kts 300°
2026-05-05 14:53 49.48078 13.79778 37763 ft 445 kts 300°
2026-05-05 14:54 49.51496 13.71838 37771 ft 445 kts 300°
2026-05-05 14:54 49.54907 13.63887 37773 ft 445 kts 300°
2026-05-05 14:55 49.58292 13.55976 37782 ft 445 kts 299°
2026-05-05 14:55 49.61699 13.47988 37769 ft 445 kts 299°
2026-05-05 14:56 49.65099 13.39992 37763 ft 445 kts 299°
2026-05-05 14:56 49.68486 13.32005 37783 ft 444 kts 299°
2026-05-05 14:57 49.71866 13.24009 37786 ft 444 kts 299°
2026-05-05 14:57 49.75241 13.16001 37777 ft 444 kts 299°
2026-05-05 14:58 49.78607 13.07989 37762 ft 444 kts 299°
2026-05-05 14:58 49.81948 13.00012 37784 ft 444 kts 299°
2026-05-05 14:59 49.85303 12.91976 37764 ft 444 kts 299°
2026-05-05 14:59 49.88662 12.83911 37778 ft 444 kts 299°
2026-05-05 15:00 49.91443 12.77211 37782 ft 445 kts 298°
2026-05-05 15:00 49.95358 12.67749 37797 ft 446 kts 298°
2026-05-05 15:01 49.98681 12.59695 37780 ft 445 kts 298°
2026-05-05 15:01 50.02022 12.51574 37785 ft 445 kts 298°
2026-05-05 15:02 50.05332 12.43435 37780 ft 443 kts 295°
2026-05-05 15:02 50.07796 12.34710 37780 ft 440 kts 286°
2026-05-05 15:03 50.09814 12.25768 37781 ft 441 kts 285°
2026-05-05 15:03 50.11760 12.16699 37799 ft 441 kts 284°
2026-05-05 15:04 50.13701 12.07627 37808 ft 441 kts 284°
2026-05-05 15:04 50.15648 11.98549 37839 ft 441 kts 284°
2026-05-05 15:05 50.18571 11.84903 37826 ft 442 kts 284°
2026-05-05 15:06 50.20499 11.75857 37828 ft 442 kts 284°
2026-05-05 15:06 50.22436 11.66725 37823 ft 442 kts 284°
2026-05-05 15:07 50.24364 11.57590 37817 ft 442 kts 284°
2026-05-05 15:07 50.26285 11.48451 37807 ft 442 kts 284°
2026-05-05 15:08 50.28201 11.39291 37807 ft 442 kts 284°
2026-05-05 15:08 50.30094 11.30194 37800 ft 443 kts 284°
2026-05-05 15:09 50.31996 11.21024 37800 ft 443 kts 283°
2026-05-05 15:09 50.33889 11.11848 37808 ft 443 kts 283°
2026-05-05 15:10 50.35779 11.02646 37809 ft 445 kts 283°
2026-05-05 15:10 50.37668 10.93411 37815 ft 444 kts 283°
2026-05-05 15:11 50.39531 10.84257 37812 ft 443 kts 283°
2026-05-05 15:11 50.41396 10.75049 37814 ft 443 kts 283°
2026-05-05 15:12 50.43257 10.65814 37818 ft 444 kts 283°
2026-05-05 15:12 50.45115 10.56547 37810 ft 446 kts 283°
2026-05-05 15:13 50.46963 10.47298 37809 ft 446 kts 283°
2026-05-05 15:13 50.48829 10.38008 37810 ft 446 kts 283°
2026-05-05 15:14 50.50696 10.28706 37808 ft 446 kts 283°
2026-05-05 15:14 50.52558 10.19389 37811 ft 447 kts 283°
2026-05-05 15:15 50.54411 10.10057 37817 ft 447 kts 283°
2026-05-05 15:15 50.56258 10.00713 37813 ft 447 kts 283°
2026-05-05 15:16 50.58085 9.91420 37812 ft 447 kts 283°
2026-05-05 15:16 50.59916 9.82066 37803 ft 447 kts 283°
2026-05-05 15:17 50.61744 9.72679 37803 ft 448 kts 283°
2026-05-05 15:17 50.63553 9.63346 37805 ft 448 kts 283°
2026-05-05 15:18 50.65368 9.53938 37807 ft 448 kts 283°
2026-05-05 15:18 50.67173 9.44528 37805 ft 448 kts 282°
2026-05-05 15:19 50.68973 9.35105 37818 ft 448 kts 282°
2026-05-05 15:19 50.70766 9.25665 37805 ft 450 kts 282°
2026-05-05 15:20 50.73159 9.16466 37800 ft 456 kts 292°
2026-05-05 15:20 50.76060 9.07595 37803 ft 458 kts 294°
2026-05-05 15:21 50.79071 8.98712 37776 ft 458 kts 294°
2026-05-05 15:21 50.82080 8.89821 37798 ft 457 kts 294°
2026-05-05 15:22 50.85064 8.80923 37804 ft 458 kts 294°
2026-05-05 15:22 50.88035 8.72005 37806 ft 458 kts 293°
2026-05-05 15:23 50.90994 8.63087 37806 ft 457 kts 293°
2026-05-05 15:23 50.93934 8.54193 37803 ft 457 kts 293°
2026-05-05 15:24 50.96891 8.45217 37798 ft 459 kts 293°
2026-05-05 15:24 50.99845 8.36216 37821 ft 460 kts 293°
2026-05-05 15:25 51.03013 8.27407 37804 ft 463 kts 298°
2026-05-05 15:25 51.06469 8.18753 37819 ft 463 kts 298°
2026-05-05 15:26 51.09958 8.10171 37819 ft 460 kts 298°
2026-05-05 15:26 51.13401 8.01661 37823 ft 461 kts 298°
2026-05-05 15:27 51.16868 7.93029 37832 ft 462 kts 298°
2026-05-05 15:27 51.20331 7.84374 37832 ft 462 kts 298°
2026-05-05 15:28 51.23759 7.75780 37834 ft 462 kts 298°
2026-05-05 15:28 51.27203 7.67120 37833 ft 462 kts 298°
2026-05-05 15:29 51.30646 7.58431 37849 ft 463 kts 298°
2026-05-05 15:29 51.34089 7.49715 37849 ft 463 kts 298°
2026-05-05 15:30 51.37512 7.41025 37848 ft 460 kts 298°
2026-05-05 15:30 51.40895 7.32403 37854 ft 460 kts 298°
2026-05-05 15:31 51.43723 7.25171 37860 ft 460 kts 298°
2026-05-05 15:31 51.47115 7.16469 37857 ft 459 kts 298°
2026-05-05 15:32 51.50497 7.07769 37861 ft 459 kts 297°
2026-05-05 15:32 51.53867 6.99067 37862 ft 459 kts 297°
2026-05-05 15:33 51.57231 6.90350 37866 ft 459 kts 297°
2026-05-05 15:33 51.60589 6.81621 37865 ft 459 kts 297°
2026-05-05 15:34 51.63916 6.72945 37881 ft 457 kts 297°
2026-05-05 15:34 51.67245 6.64234 37874 ft 456 kts 297°
2026-05-05 15:35 51.70559 6.55529 37871 ft 456 kts 297°
2026-05-05 15:35 51.73870 6.46803 37883 ft 456 kts 297°
2026-05-05 15:36 51.77174 6.38067 37881 ft 456 kts 297°
2026-05-05 15:36 51.80478 6.29299 37874 ft 456 kts 298°
2026-05-05 15:37 51.83754 6.20576 37898 ft 457 kts 297°
2026-05-05 15:37 51.87048 6.11776 37879 ft 457 kts 297°
2026-05-05 15:38 51.90337 6.02960 37882 ft 456 kts 298°
2026-05-05 15:38 51.93607 5.94164 37885 ft 455 kts 297°
2026-05-05 15:39 51.96869 5.85357 37894 ft 455 kts 298°
2026-05-05 15:39 52.00128 5.76529 37884 ft 456 kts 298°
2026-05-05 15:40 52.03359 5.67747 37908 ft 456 kts 298°
2026-05-05 15:40 52.06607 5.58888 37884 ft 456 kts 298°
2026-05-05 15:41 52.09846 5.50021 37893 ft 455 kts 298°
2026-05-05 15:41 52.13080 5.41136 37897 ft 456 kts 297°
2026-05-05 15:42 52.16286 5.32298 37894 ft 456 kts 298°
2026-05-05 15:42 52.19505 5.23395 37899 ft 456 kts 297°
2026-05-05 15:43 52.22712 5.14492 37899 ft 455 kts 297°
2026-05-05 15:43 52.25921 5.05553 37906 ft 455 kts 297°
2026-05-05 15:44 52.29116 4.96620 37912 ft 455 kts 297°
2026-05-05 15:44 52.32289 4.87714 37903 ft 456 kts 297°
2026-05-05 15:45 52.35483 4.78721 37914 ft 457 kts 297°
2026-05-05 15:45 52.38668 4.69722 37903 ft 457 kts 297°
2026-05-05 15:46 52.41849 4.60702 37903 ft 457 kts 297°
2026-05-05 15:46 52.45015 4.51689 37910 ft 457 kts 297°
2026-05-05 15:47 52.48163 4.42697 37908 ft 457 kts 297°
2026-05-05 15:47 52.51320 4.33645 37919 ft 457 kts 297°
2026-05-05 15:48 52.54476 4.24563 37922 ft 457 kts 297°
2026-05-05 15:48 52.57617 4.15492 37927 ft 457 kts 297°
2026-05-05 15:49 52.60758 4.06389 37933 ft 457 kts 297°
2026-05-05 15:49 52.63887 3.97286 37945 ft 457 kts 297°
2026-05-05 15:50 52.66992 3.88220 37938 ft 458 kts 297°
2026-05-05 15:50 52.70124 3.79043 37950 ft 458 kts 296°
2026-05-05 15:51 52.73242 3.69873 37949 ft 457 kts 296°
2026-05-05 15:51 52.76339 3.60731 37963 ft 456 kts 296°
2026-05-05 15:52 52.79427 3.51578 37978 ft 456 kts 296°
2026-05-05 15:52 52.82502 3.42433 37971 ft 454 kts 296°
2026-05-05 15:53 52.85561 3.33303 37971 ft 454 kts 296°
2026-05-05 15:53 52.88600 3.24197 37971 ft 454 kts 296°
2026-05-05 15:54 52.91405 3.14870 37966 ft 451 kts 287°
2026-05-05 15:54 52.93063 3.04894 37968 ft 448 kts 281°
2026-05-05 15:55 52.94420 2.94788 37963 ft 449 kts 280°
2026-05-05 15:55 52.95711 2.84666 37963 ft 448 kts 280°
2026-05-05 15:56 52.96999 2.74599 37966 ft 448 kts 280°
2026-05-05 15:56 52.98302 2.64467 37972 ft 448 kts 280°
2026-05-05 15:57 52.99599 2.54351 37967 ft 447 kts 280°
2026-05-05 15:57 53.00889 2.44219 37968 ft 448 kts 280°
2026-05-05 15:58 53.02162 2.34146 37971 ft 449 kts 280°
2026-05-05 15:58 53.03434 2.23996 37971 ft 449 kts 280°
2026-05-05 15:59 53.04699 2.13838 37971 ft 448 kts 279°
2026-05-05 15:59 53.05956 2.03661 37971 ft 448 kts 279°
2026-05-05 16:00 53.07201 1.93498 37975 ft 449 kts 279°
2026-05-05 16:00 53.08441 1.83306 37977 ft 449 kts 279°
2026-05-05 16:01 53.09664 1.73169 37975 ft 449 kts 279°
2026-05-05 16:01 53.10888 1.62956 37974 ft 449 kts 279°
2026-05-05 16:02 53.12104 1.52731 37981 ft 449 kts 279°
2026-05-05 16:02 53.13309 1.42514 37974 ft 450 kts 279°
2026-05-05 16:03 53.14507 1.32274 37974 ft 450 kts 279°
2026-05-05 16:03 53.15688 1.22102 37977 ft 450 kts 279°
2026-05-05 16:04 53.16868 1.11860 37977 ft 450 kts 279°
2026-05-05 16:04 53.18038 1.01620 37992 ft 450 kts 279°
2026-05-05 16:05 53.19203 0.91346 37985 ft 450 kts 279°
2026-05-05 16:05 53.20352 0.81130 37988 ft 450 kts 279°
2026-05-05 16:06 53.21497 0.70863 37991 ft 450 kts 279°
2026-05-05 16:06 53.22632 0.60598 37993 ft 450 kts 279°
2026-05-05 16:07 53.23761 0.50305 37994 ft 450 kts 279°
2026-05-05 16:07 53.24879 0.40027 37997 ft 450 kts 279°
2026-05-05 16:08 53.25989 0.29727 38002 ft 450 kts 279°
2026-05-05 16:08 53.27081 0.19519 37999 ft 449 kts 278°
2026-05-05 16:09 53.28170 0.09245 37999 ft 448 kts 279°
2026-05-05 16:09 53.29245 -0.01044 38006 ft 449 kts 278°
2026-05-05 16:10 53.30306 -0.11279 37996 ft 449 kts 278°
2026-05-05 16:10 53.31368 -0.21556 37996 ft 449 kts 279°
2026-05-05 16:11 53.32482 -0.31836 37888 ft 450 kts 279°
2026-05-05 16:11 53.34206 -0.47237 37081 ft 446 kts 279°
2026-05-05 16:12 53.34791 -0.52327 36661 ft 444 kts 280°
2026-05-05 16:12 53.35979 -0.62445 35626 ft 442 kts 280°
2026-05-05 16:13 53.37823 -0.77650 33589 ft 452 kts 281°
2026-05-05 16:13 53.38468 -0.82844 32671 ft 458 kts 281°
2026-05-05 16:13 53.39130 -0.88118 31680 ft 465 kts 281°
2026-05-05 16:14 53.40510 -0.98917 29442 ft 482 kts 281°
2026-05-05 16:14 53.41911 -1.09696 29252 ft 452 kts 281°
2026-05-05 16:15 53.43207 -1.19559 29514 ft 416 kts 281°
2026-05-05 16:15 53.44427 -1.28750 29380 ft 393 kts 281°
2026-05-05 16:16 53.45416 -1.36096 28975 ft 386 kts 281°
2026-05-05 16:16 53.46595 -1.44818 28173 ft 382 kts 281°
2026-05-05 16:17 53.47976 -1.54944 26885 ft 385 kts 281°
2026-05-05 16:17 53.48580 -1.59348 26219 ft 389 kts 281°
2026-05-05 16:18 53.49604 -1.66809 24958 ft 400 kts 281°
2026-05-05 16:18 53.50236 -1.71403 24092 ft 408 kts 281°
2026-05-05 16:18 53.51540 -1.80891 21873 ft 426 kts 281°
2026-05-05 16:19 53.52213 -1.85797 20611 ft 436 kts 282°
2026-05-05 16:19 53.52899 -1.90804 19816 ft 436 kts 282°
2026-05-05 16:19 53.54192 -2.00223 19995 ft 393 kts 282°
2026-05-05 16:20 53.55379 -2.08817 19855 ft 364 kts 282°
2026-05-05 16:20 53.56497 -2.16864 19382 ft 348 kts 282°
2026-05-05 16:21 53.57589 -2.24710 18623 ft 343 kts 282°
2026-05-05 16:22 53.59233 -2.36523 16753 ft 351 kts 283°
2026-05-05 16:22 53.60361 -2.44639 15094 ft 365 kts 283°
2026-05-05 16:23 53.61543 -2.53170 13050 ft 383 kts 283°
2026-05-05 16:23 53.62155 -2.57609 11804 ft 394 kts 283°
2026-05-05 16:23 53.63345 -2.66292 11778 ft 352 kts 283°
2026-05-05 16:24 53.63871 -2.70173 11977 ft 328 kts 283°
2026-05-05 16:24 53.64358 -2.73802 12066 ft 308 kts 283°
2026-05-05 16:24 53.65252 -2.80534 11894 ft 290 kts 283°
2026-05-05 16:25 53.65690 -2.83862 11676 ft 292 kts 283°
2026-05-05 16:25 53.66554 -2.90505 11023 ft 288 kts 283°
2026-05-05 16:25 53.66982 -2.93804 10578 ft 289 kts 283°
2026-05-05 16:26 53.67845 -3.00523 9454 ft 298 kts 283°
2026-05-05 16:26 53.68740 -3.07530 7938 ft 315 kts 283°
2026-05-05 16:27 53.69210 -3.11213 7054 ft 327 kts 283°
2026-05-05 16:27 53.69692 -3.14981 6066 ft 339 kts 283°
2026-05-05 16:27 53.70198 -3.18946 4907 ft 353 kts 283°
2026-05-05 16:27 53.70728 -3.23095 3602 ft 369 kts 284°
2026-05-05 16:28 53.71246 -3.27196 3846 ft 339 kts 283°
2026-05-05 16:28 53.71701 -3.30914 4134 ft 309 kts 284°
2026-05-05 16:28 53.72105 -3.34335 4293 ft 286 kts 283°
2026-05-05 16:28 53.72477 -3.37568 4313 ft 277 kts 283°
2026-05-05 16:29 53.72836 -3.40762 4245 ft 277 kts 282°
2026-05-05 16:29 53.73187 -3.43951 4094 ft 275 kts 282°
2026-05-05 16:29 53.73523 -3.47125 3865 ft 275 kts 282°
2026-05-05 16:29 53.73848 -3.50259 3546 ft 273 kts 281°
2026-05-05 16:30 53.74167 -3.53420 3149 ft 273 kts 282°
2026-05-05 16:30 53.74478 -3.56600 2665 ft 276 kts 281°
2026-05-05 16:30 53.74786 -3.59819 2093 ft 280 kts 281°
2026-05-05 16:30 53.75091 -3.63107 1425 ft 287 kts 281°
2026-05-05 16:31 53.75400 -3.66493 641 ft 295 kts 280°
2026-05-05 16:31 53.75724 -3.69868 29 ft 269 kts 282°
2026-05-05 16:31 53.76089 -3.72852 73 ft 250 kts 285°
2026-05-05 16:31 53.76555 -3.75582 89 ft 230 kts 291°
2026-05-05 16:32 53.77132 -3.77984 175 ft 212 kts 297°
2026-05-05 16:32 53.77832 -3.80144 204 ft 209 kts 303°
2026-05-05 16:32 53.78739 -3.82248 215 ft 231 kts 310°
2026-05-05 16:32 53.79854 -3.84250 140 ft 239 kts 317°
2026-05-05 16:33 53.81161 -3.86067 16 ft 246 kts 324°
2026-05-05 16:33 53.82502 -3.87621 45 ft 228 kts 326°
2026-05-05 16:33 53.83813 -3.89054 12 ft 223 kts 328°
2026-05-05 16:33 53.85111 -3.90468 15 ft 223 kts 327°
2026-05-05 16:34 53.86395 -3.91884 84 ft 214 kts 324°
2026-05-05 16:34 53.87583 -3.93404 230 ft 212 kts 322°
2026-05-05 16:34 53.88698 -3.95032 324 ft 210 kts 317°
2026-05-05 16:34 53.89732 -3.96783 340 ft 212 kts 313°
2026-05-05 16:35 53.90752 -3.98817 336 ft 234 kts 309°
2026-05-05 16:35 53.91739 -4.01105 250 ft 245 kts 305°
2026-05-05 16:35 53.92650 -4.03580 88 ft 247 kts 301°
2026-05-05 16:35 53.93460 -4.06068 48 ft 235 kts 301°
2026-05-05 16:36 53.94314 -4.08353 14 ft 226 kts 306°
2026-05-05 16:36 53.95235 -4.10470 31 ft 224 kts 309°
2026-05-05 16:36 53.96251 -4.12524 31 ft 228 kts 312°
2026-05-05 16:36 53.97352 -4.14429 30 ft 223 kts 319°
2026-05-05 16:37 53.98567 -4.16061 29 ft 224 kts 325°
2026-05-05 16:37 53.99854 -4.17504 131 ft 220 kts 328°
2026-05-05 16:37 54.01118 -4.18811 165 ft 211 kts 330°
2026-05-05 16:37 54.02428 -4.20045 165 ft 219 kts 332°
2026-05-05 16:38 54.03858 -4.21265 119 ft 238 kts 334°
2026-05-05 16:38 54.05394 -4.22449 14 ft 245 kts 336°
2026-05-05 16:38 54.06813 -4.23413 209 ft 207 kts 339°
2026-05-05 16:38 54.08150 -4.24189 323 ft 201 kts 342°
2026-05-05 16:39 54.09507 -4.24824 390 ft 203 kts 346°
2026-05-05 16:39 54.10909 -4.25313 396 ft 213 kts 350°
2026-05-05 16:39 54.12458 -4.25668 379 ft 232 kts 352°
2026-05-05 16:39 54.14108 -4.25861 267 ft 242 kts 357°
2026-05-05 16:40 54.15797 -4.25868 68 ft 243 kts 360°
2026-05-05 16:40 54.17423 -4.25742 61 ft 229 kts
2026-05-05 16:40 54.18954 -4.25643 133 ft 213 kts 359°
2026-05-05 16:40 54.20424 -4.25566 239 ft 209 kts
2026-05-05 16:41 54.21877 -4.25444 292 ft 209 kts
2026-05-05 16:41 54.23354 -4.25278 284 ft 222 kts
2026-05-05 16:41 54.24959 -4.25060 245 ft 238 kts
2026-05-05 16:41 54.26645 -4.24783 123 ft 245 kts
2026-05-05 16:42 54.28332 -4.24491 22 ft 240 kts
2026-05-05 16:42 54.29920 -4.24252 72 ft 225 kts
2026-05-05 16:42 54.31484 -4.24076 66 ft 219 kts 359°
2026-05-05 16:42 54.32982 -4.24120 96 ft 214 kts 354°
2026-05-05 16:43 54.34537 -4.24385 87 ft 235 kts 349°
2026-05-05 16:43 54.36182 -4.24913 29 ft 245 kts 345°
2026-05-05 16:43 54.37726 -4.25675 227 ft 220 kts 340°
2026-05-05 16:43 54.39120 -4.26553 337 ft 209 kts 335°
2026-05-05 16:44 54.40437 -4.27578 379 ft 208 kts 332°
2026-05-05 16:44 54.41698 -4.28802 383 ft 212 kts 327°
2026-05-05 16:44 54.42965 -4.30322 371 ft 230 kts 323°
2026-05-05 16:44 54.44225 -4.32134 250 ft 240 kts 317°
2026-05-05 16:45 54.45398 -4.34146 31 ft 240 kts 312°
2026-05-05 16:45 54.46479 -4.36187 10 ft 226 kts 313°
2026-05-05 16:45 54.47536 -4.38040 51 ft 207 kts 313°
2026-05-05 16:45 54.48522 -4.39834 314 ft 205 kts 311°
2026-05-05 16:46 54.49449 -4.41683 506 ft 203 kts 310°
2026-05-05 16:46 54.50318 -4.43613 650 ft 204 kts 308°
2026-05-05 16:46 54.51129 -4.45631 689 ft 205 kts 304°
2026-05-05 16:46 54.51899 -4.47805 695 ft 226 kts 301°
2026-05-05 16:47 54.52656 -4.50250 634 ft 238 kts 297°
2026-05-05 16:47 54.53354 -4.52866 456 ft 241 kts 294°
2026-05-05 16:47 54.53965 -4.55555 216 ft 241 kts 291°
2026-05-05 16:47 54.54486 -4.58219 181 ft 217 kts 289°
2026-05-05 16:48 54.54927 -4.60599 473 ft 205 kts 288°
2026-05-05 16:48 54.55313 -4.62941 728 ft 207 kts 288°
2026-05-05 16:48 54.55666 -4.65354 915 ft 208 kts 286°
2026-05-05 16:48 54.55972 -4.67794 1023 ft 208 kts 283°
2026-05-05 16:49 54.56221 -4.70258 1038 ft 211 kts 281°
2026-05-05 16:49 54.56430 -4.72923 1044 ft 231 kts 279°
2026-05-05 16:49 54.56590 -4.75754 935 ft 243 kts 277°
2026-05-05 16:49 54.56694 -4.78702 750 ft 248 kts 274°
2026-05-05 16:50 54.56727 -4.81661 471 ft 246 kts 272°
2026-05-05 16:50 54.56686 -4.84600 115 ft 245 kts 269°
2026-05-05 16:50 54.56570 -4.87393 137 ft 219 kts 266°
2026-05-05 16:50 54.56360 -4.89904 261 ft 208 kts 263°
2026-05-05 16:51 54.56061 -4.92362 340 ft 210 kts 259°
2026-05-05 16:51 54.55664 -4.94795 363 ft 223 kts 256°
2026-05-05 16:51 54.55117 -4.97455 337 ft 244 kts 251°
2026-05-05 16:51 54.54420 -5.00180 241 ft 252 kts 247°
2026-05-05 16:52 54.53591 -5.02870 58 ft 255 kts 243°
2026-05-05 16:52 54.52680 -5.05329 124 ft 226 kts 240°
2026-05-05 16:52 54.51878 -5.07566 370 ft 218 kts 244°
2026-05-05 16:52 54.51175 -5.09896 567 ft 221 kts 249°
2026-05-05 16:53 54.50592 -5.12344 687 ft 221 kts 254°
2026-05-05 16:53 54.50152 -5.14861 732 ft 219 kts 261°
2026-05-05 16:53 54.49877 -5.17576 730 ft 242 kts 267°
2026-05-05 16:53 54.49775 -5.20505 656 ft 251 kts 273°
2026-05-05 16:54 54.49867 -5.23538 513 ft 255 kts 279°
2026-05-05 16:54 54.50145 -5.26483 285 ft 252 kts 284°
2026-05-05 16:54 54.50619 -5.29372 15 ft 244 kts 297°
2026-05-05 16:54 54.51289 -5.31975 10 ft 232 kts 300°
2026-05-05 16:55 54.52039 -5.34334 28 ft 223 kts 302°
2026-05-05 16:55 54.52851 -5.36551 68 ft 215 kts 307°
2026-05-05 16:55 54.53790 -5.38637 36 ft 233 kts 313°
2026-05-05 16:55 54.54876 -5.40634 21 ft 224 kts 316°
2026-05-05 16:56 54.55931 -5.42360 19 ft 202 kts 321°
2026-05-05 16:56 54.57018 -5.43852 160 ft 204 kts 326°
2026-05-05 16:56 54.58218 -5.45222 289 ft 207 kts 331°
2026-05-05 16:56 54.59472 -5.46394 376 ft 209 kts 336°
2026-05-05 16:57 54.60812 -5.47377 387 ft 212 kts 341°
2026-05-05 16:57 54.62317 -5.48173 376 ft 232 kts 347°
2026-05-05 16:57 54.63936 -5.48732 279 ft 242 kts 353°
2026-05-05 16:57 54.65618 -5.49015 115 ft 242 kts 357°
2026-05-05 16:58 54.67271 -5.49054 42 ft 230 kts
2026-05-05 16:58 54.68733 -5.49090 318 ft 204 kts 357°
2026-05-05 16:58 54.70167 -5.49324 637 ft 208 kts 352°
2026-05-05 16:58 54.71586 -5.49789 882 ft 206 kts 346°
2026-05-05 16:59 54.72952 -5.50505 1029 ft 205 kts 340°
2026-05-05 16:59 54.74247 -5.51507 1120 ft 206 kts 333°
2026-05-05 16:59 54.75474 -5.52828 1130 ft 218 kts 326°
2026-05-05 16:59 54.76701 -5.54604 1124 ft 235 kts 318°
2026-05-05 17:00 54.77833 -5.56763 1057 ft 248 kts 311°
2026-05-05 17:00 54.78814 -5.59240 889 ft 250 kts 303°
2026-05-05 17:00 54.79591 -5.61942 639 ft 250 kts 296°
2026-05-05 17:00 54.80142 -5.64802 297 ft 250 kts 288°
2026-05-05 17:01 54.80482 -5.67728 55 ft 239 kts 283°
2026-05-05 17:01 54.80611 -5.69078 34 ft 0 kts 287°
2026-05-05 17:02 54.80611 -5.69077 29 ft 0 kts 288°
2026-05-05 17:03 54.80611 -5.69076 25 ft 0 kts 289°
2026-05-05 17:23 54.80611 -5.69075 21 ft 0 kts 296°